Temp
20 19 19 19 19 19 18 18 18 18 18 18 17 17 17 17 17 16 16 15 15 14 14 14 14 14 13 13 13 13 13 13 13 12 12 12 12 12 12 12 12 12 12 11 11 11 11 11 11 11 11 11 10 10 10 10 10 10 10 10 9 9 9 9 9 9 9 9 8
20 19 19 19 19 19 18 18 18 18 18 18 17 17 17 17 17 16 16 15 15 14 14 14 14 14 14 13 13 13 13 13 12 12 12 12 12 12 12 12 12 12 11 11 11 11 11 11 11 11 10 10 10 10 10 10 10 10 10 9 9 9 9 9 9 9 9 8 8
20 19 19 18 18 18 18 18 18 18 18 17 17 17 17 17 17 16 16 15 15 14 14 14 14 14 14 13 13 13 13 12 12 12 12 12 12 12 12 12 12 11 11 11 11 11 11 11 11 10 10 10 10 10 10 10 10 9 9 9 9 9 9 9 9 9 8 8 8
20 19 19 18 18 18 18 17 17 17 17 17 17 17 17 17 17 16 16 15 15 14 14 14 14 14 13 13 13 13 12 12 12 12 12 12 12 12 12 12 12 11 11 11 11 11 11 11 10 10 10 10 10 10 10 10 9 9 9 9 9 9 9 9 9 8 8 8 8
20 19 18 18 18 18 17 17 17 17 17 17 17 17 17 17 16 16 16 15 15 14 14 14 14 14 13 13 13 13 12 12 12 12 12 12 12 12 12 12 11 11 11 11 11 10 10 10 10 10 10 10 10 10 10 9 9 9 9 9 9 9 9 9 8 8 8 8 8
20 19 18 18 18 17 17 17 17 17 17 17 17 17 16 16 16 16 16 15 15 14 14 14 14 14 13 13 13 12 12 12 12 12 12 12 12 12 12 12 11 11 11 11 10 10 10 10 10 10 10 10 10 10 10 9 9 9 9 9 9 9 9 8 8 8 8 8 8
20 19 18 18 17 17 17 17 17 16 16 16 16 16 16 16 16 16 15 15 15 14 14 14 14 14 13 13 12 12 11 11 12 12 12 12 12 12 12 11 11 11 11 11 10 10 10 10 10 10 10 10 10 10 10 9 9 9 9 9 9 9 8 8 8 8 8 8 8
20 19 18 17 17 17 17 17 16 16 16 16 16 16 16 16 16 15 15 15 14 14 14 14 14 13 13 12 12 11 11 11 11 12 11 11 12 12 11 11 11 11 11 10 10 10 10 10 10 10 10 10 9 9 9 9 9 9 9 9 9 9 8 8 8 8 8 8 8
20 19 18 17 17 17 17 17 16 16 16 16 16 16 16 16 15 15 15 15 14 14 14 14 13 13 12 12 11 11 11 11 11 11 11 11 11 11 11 11 11 11 11 10 10 10 10 10 10 10 9 9 9 9 9 9 9 9 9 9 9 8 8 8 8 8 8 8 8
20 20 19 18 17 17 17 16 16 16 15 15 16 16 16 15 15 15 15 14 14 14 14 14 13 12 12 12 11 11 11 11 11 11 11 11 11 11 11 11 11 11 10 10 10 10 10 10 10 10 9 9 9 9 9 9 9 9 9 9 9 8 8 8 8 8 8 8 8
21 20 19 18 17 17 17 16 16 15 15 15 15 15 15 15 15 15 14 14 14 14 14 13 13 12 12 12 11 11 11 11 12 12 11 11 11 11 11 11 11 11 10 10 10 10 10 9 9 9 9 9 9 9 9 9 9 9 9 9 9 8 8 8 8 8 8 8 8
21 20 19 18 17 17 16 16 16 15 15 15 15 15 15 15 15 15 14 14 14 14 13 13 12 12 12 12 12 11 11 12 12 12 11 11 11 11 11 11 11 11 10 10 10 10 9 9 9 9 9 9 9 9 9 9 9 9 9 9 8 8 8 8 8 8 8 8 8
21 20 19 18 17 17 16 16 16 15 15 15 15 15 14 14 14 14 14 14 14 13 13 13 12 12 12 12 12 12 12 12 12 12 12 11 11 11 11 11 11 11 10 10 10 10 9 9 9 9 8 9 9 9 9 9 9 9 9 8 8 8 8 8 8 8 8 8 8
21 20 19 18 17 17 16 16 16 16 15 15 15 14 14 14 14 14 14 13 13 13 13 12 12 12 12 12 12 12 12 12 12 12 12 12 11 11 11 11 11 11 10 10 10 10 9 9 8 8 8 9 9 9 9 9 9 9 8 8 8 8 8 8 8 8 8 8 8
21 20 19 18 17 17 17 16 16 16 15 15 15 14 14 14 14 13 13 13 13 13 13 12 12 12 12 12 12 12 12 12 12 12 12 12 12 11 11 11 11 11 10 10 10 9 9 8 7 8 8 9 9 9 9 9 9 9 8 8 8 8 8 8 8 8 8 8 8
21 20 19 18 18 17 17 17 16 16 15 15 15 14 14 14 14 13 13 13 13 13 13 12 12 12 12 13 12 12 12 12 12 12 12 12 11 11 11 11 11 11 10 10 9 8 7 7 7 8 9 9 9 9 9 9 9 8 8 8 8 8 8 8 8 8 8 8 8
21 20 19 19 18 17 17 17 17 16 16 15 15 14 14 14 14 13 13 13 13 13 12 12 12 12 13 13 13 13 13 12 12 12 12 12 11 11 11 11 11 10 10 9 8 7 7 7 8 8 9 9 9 9 9 9 9 8 8 8 8 8 8 8 8 8 8 8 8
21 20 20 19 18 18 17 17 17 16 16 15 15 14 14 14 14 13 13 13 13 13 12 12 12 13 13 13 13 13 13 12 12 12 12 11 11 11 11 11 10 10 9 8 8 7 7 8 8 9 9 9 9 9 9 9 9 9 8 8 8 8 8 8 8 8 8 8 8
21 21 20 19 19 18 18 17 17 17 16 15 15 15 14 14 14 14 13 13 13 13 12 12 13 13 13 13 13 13 13 12 12 12 12 11 11 11 11 10 10 9 8 8 8 8 8 8 9 9 9 9 9 9 9 9 9 9 9 8 8 8 8 8 8 8 8 8 8
21 21 20 20 19 19 18 18 17 17 16 16 15 15 14 14 14 14 13 13 13 12 12 13 13 13 13 13 13 13 12 12 12 12 12 11 11 11 10 9 9 8 8 8 8 9 9 9 9 9 9 8 9 9 9 9 9 9 9 8 8 8 8 8 8 8 8 8 8
22 21 21 20 20 19 18 18 17 17 17 16 16 15 15 14 14 14 14 13 13 12 12 13 13 13 13 13 13 12 12 12 12 12 11 11 10 10 9 8 8 8 8 9 9 9 9 9 9 8 8 8 8 9 9 9 9 9 9 9 8 8 8 8 8 8 8 8 8
22 21 21 20 20 19 19 18 18 17 17 17 16 16 15 15 14 14 14 13 13 12 12 13 13 13 13 12 12 12 12 12 11 11 11 11 10 9 9 8 8 8 9 9 9 9 9 9 9 8 8 8 8 9 9 9 9 9 9 9 9 8 8 8 8 8 8 8 8
22 22 21 21 20 20 19 19 18 18 17 17 16 16 15 15 15 14 14 13 13 12 12 12 13 12 12 12 12 12 12 11 11 11 11 10 9 9 9 8 9 9 9 9 9 9 9 9 9 8 8 8 8 9 9 9 9 9 9 9 9 8 8 8 8 8 8 8 8
21 22 21 21 21 20 20 19 18 18 18 17 17 16 16 15 15 14 14 13 13 12 12 12 12 12 12 12 12 12 11 11 11 10 10 9 9 9 9 9 9 9 9 9 9 9 9 9 9 9 9 9 9 9 9 9 9 9 9 9 8 8 8 8 8 8 8 8 8
21 22 22 21 21 20 20 19 19 18 18 17 17 16 16 15 15 14 13 13 13 12 12 12 12 12 12 12 11 11 11 10 10 10 9 9 9 9 9 9 9 9 9 9 9 9 9 9 9 9 9 9 9 9 9 9 9 9 8 8 8 8 8 8 8 8 8 8 8
22 22 22 22 21 21 20 20 19 18 18 17 17 17 16 16 15 14 13 13 12 12 12 12 12 12 11 11 11 11 10 10 9 9 9 9 9 9 9 9 9 9 9 9 9 9 9 9 9 9 9 9 9 9 9 9 9 9 8 8 8 8 8 8 8 8 8 8 8
22 22 22 22 21 21 21 20 19 18 18 18 17 17 16 15 14 14 13 13 12 12 12 12 11 11 11 11 11 10 10 9 9 8 8 8 9 9 9 9 9 9 8 8 9 9 9 9 9 9 9 9 9 9 9 9 9 9 9 8 8 8 8 8 8 8 8 8 8
22 22 22 21 21 21 21 20 19 18 18 18 17 17 16 15 14 13 13 12 12 12 12 11 11 11 10 10 10 10 9 9 8 8 8 8 9 9 9 9 9 8 8 8 9 9 9 9 9 9 9 9 9 9 9 9 9 9 8 8 8 8 8 8 8 7 7 7 7
21 21 21 21 21 21 20 19 18 18 18 17 17 16 15 14 13 13 12 12 12 12 11 11 11 10 10 10 10 10 9 9 8 8 8 8 9 9 9 8 8 8 8 9 9 9 9 9 9 9 9 9 9 9 9 9 9 8 8 8 8 8 8 8 7 7 7 7 7
21 20 20 20 20 19 19 19 18 18 17 17 16 15 15 14 13 13 12 12 12 11 11 11 11 10 10 10 10 9 9 9 8 8 8 8 9 9 8 8 8 9 9 9 9 9 9 9 9 9 9 9 9 9 9 8 8 8 8 8 8 8 7 7 7 7 7 7 7
20 19 19 19 19 19 18 18 17 17 16 16 16 15 14 14 13 13 12 12 12 11 11 11 11 10 10 10 9 9 9 9 9 8 8 8 9 9 8 8 9 9 9 9 9 9 9 9 9 9 9 9 9 9 9 8 8 8 8 8 7 7 7 7 7 7 7 7 7
19 19 18 18 18 18 18 17 17 16 16 16 15 15 15 14 14 13 13 12 12 12 11 11 11 10 10 10 9 9 9 9 9 9 8 8 9 9 9 9 9 9 9 9 9 9 9 9 9 9 9 9 9 9 9 8 8 8 7 7 7 7 7 7 7 7 7 7 7
18 18 18 18 18 18 17 17 17 16 16 15 15 15 15 15 14 14 13 13 12 12 11 11 11 10 10 9 9 9 9 9 9 9 9 9 9 9 9 9 9 9 9 9 9 9 9 9 9 9 9 9 9 9 8 8 8 7 7 7 7 7 7 7 7 7 7 7 7
18 18 18 17 17 17 17 17 16 16 15 15 15 15 15 15 14 14 13 13 12 12 11 11 11 10 10 9 9 9 9 9 9 9 9 9 9 9 9 9 9 9 9 9 9 9 9 9 9 9 9 9 9 8 8 8 8 7 7 7 7 7 7 7 6 6 6 6 6
17 17 17 17 17 17 16 16 16 15 15 15 15 15 15 15 15 14 14 13 12 12 11 11 11 10 10 10 9 9 9 9 9 9 9 9 9 9 9 9 9 9 9 9 9 9 9 9 9 9 9 9 9 8 8 8 7 7 7 7 6 6 6 6 6 6 6 6 6
17 17 16 16 16 16 16 16 16 15 15 15 15 15 14 14 14 14 14 13 12 12 11 11 11 10 10 10 10 9 10 10 10 10 9 9 9 9 9 9 10 10 10 10 9 9 9 9 9 9 9 9 8 8 8 7 7 7 6 6 6 6 6 6 6 6 6 6 6
16 16 16 16 16 16 16 16 16 15 15 14 14 14 14 14 14 14 13 13 12 12 11 11 11 11 10 10 10 10 10 10 10 10 10 10 9 9 9 9 10 10 10 10 10 9 9 9 9 9 9 8 8 8 8 7 7 6 6 6 6 6 6 6 6 6 6 6 6
16 16 16 16 16 16 16 16 15 15 15 14 14 14 14 14 13 13 13 13 12 12 12 11 11 11 11 10 10 10 10 10 10 10 10 10 10 10 10 10 10 10 10 10 10 10 9 9 9 9 8 8 8 8 7 7 6 6 6 6 6 6 6 6 6 6 6 6 6
16 16 16 16 16 16 16 15 15 15 14 14 14 13 13 13 13 13 13 12 12 12 12 11 11 11 11 11 10 10 10 10 10 10 10 10 10 10 10 10 10 10 10 10 10 10 9 9 9 9 8 8 8 7 7 6 6 6 6 6 6 6 6 6 6 6 6 6 6
16 16 16 16 16 16 15 15 15 14 14 14 13 13 13 13 13 13 13 12 12 12 12 11 11 11 11 11 11 10 10 10 10 10 10 10 10 10 10 10 10 10 10 10 9 9 9 9 8 8 8 8 8 7 7 6 6 6 6 6 6 6 6 6 6 6 6 6 6
16 16 16 16 15 15 15 15 15 14 14 13 13 13 13 13 13 13 12 12 12 12 12 12 11 11 11 11 11 10 10 10 10 10 10 10 10 10 10 10 10 10 9 9 9 9 9 8 8 8 8 8 7 7 6 6 6 5 5 5 6 6 6 6 6 6 6 6 6
Height
788 789 790 792 793 794 795 797 798 799 800 801 802 804 805 807 809 811 812 814 815 816 818 819 821 822 823 825 826 827 828 829 831 832 833 834 834 835 835 836 837 837 838 839 840 841 842 842 842 842 843 843 844 845 846 847 847 848 848 849 850 850 850 851 851 851 852 852 852
785 787 788 789 791 792 793 795 796 797 798 799 800 802 803 805 807 809 811 812 813 815 817 818 820 821 822 823 824 825 826 827 828 830 831 832 833 834 835 835 836 837 837 838 839 840 841 841 841 841 842 842 843 844 845 846 847 847 848 848 849 849 850 850 850 850 851 851 852
783 784 786 787 788 790 791 792 794 795 796 797 799 800 801 802 804 806 808 810 812 813 815 817 818 820 821 822 823 824 825 826 827 828 829 831 832 833 834 834 835 836 837 837 838 839 839 840 840 840 840 841 842 843 844 845 845 846 847 847 848 848 849 849 849 850 850 850 851
781 782 783 785 786 787 788 790 791 793 794 796 797 799 800 801 802 803 805 807 810 812 813 815 817 818 820 821 822 823 824 825 826 827 828 829 831 832 833 834 835 835 836 836 837 838 839 839 839 839 839 840 841 842 843 844 844 845 846 847 847 847 847 848 848 849 849 850 850
779 780 781 782 783 785 786 788 789 791 792 794 796 797 799 800 801 802 803 805 807 809 811 813 815 817 818 819 821 822 823 824 825 826 827 828 829 831 832 833 834 834 835 836 837 837 838 838 838 838 839 839 840 841 842 842 843 844 845 845 846 847 847 847 848 848 849 849 849
777 778 779 781 782 783 785 787 788 790 791 793 795 796 797 799 800 801 802 803 805 806 808 811 812 814 816 817 819 821 823 824 825 826 827 827 828 829 831 832 833 833 834 835 836 837 837 838 838 838 838 838 839 840 841 841 842 842 843 844 845 846 846 847 847 847 848 848 849
774 776 778 779 781 782 784 786 787 788 790 792 793 794 796 797 798 800 801 802 803 805 806 808 810 812 813 815 817 819 821 823 825 825 826 826 827 828 829 831 832 833 834 834 835 836 837 837 837 837 837 838 838 839 840 840 840 841 842 843 844 845 845 846 846 847 847 848 848
773 775 776 777 779 781 782 784 786 787 788 790 791 792 794 796 797 798 799 801 802 803 804 806 808 810 811 813 814 817 819 821 822 823 824 825 826 827 828 829 831 832 832 833 834 835 836 836 837 837 837 837 837 838 839 839 839 840 841 842 843 844 844 845 846 846 847 847 847
771 773 774 776 777 779 781 783 784 785 787 788 789 791 792 794 795 797 798 799 801 802 803 804 806 807 809 811 812 814 817 818 820 821 822 823 824 825 827 828 829 830 831 832 833 834 835 835 836 836 836 836 837 837 838 838 839 839 840 841 842 843 844 844 845 845 846 846 847
769 771 772 774 776 777 779 781 782 784 785 787 788 790 791 792 794 795 796 798 799 800 801 802 804 806 808 810 811 812 814 816 818 819 820 821 822 823 825 826 827 828 830 831 832 832 833 834 835 835 835 835 836 837 837 837 838 838 839 840 842 842 843 844 844 844 845 845 846
766 768 770 772 773 776 778 780 781 782 784 785 787 788 789 791 792 794 795 797 798 799 799 800 802 804 806 808 809 811 812 814 816 817 818 820 821 822 823 824 825 827 828 829 830 831 832 833 833 834 834 835 835 836 836 836 837 837 838 839 841 842 842 842 843 843 844 844 845
764 766 768 770 772 774 776 778 780 781 782 784 785 786 787 788 790 792 793 795 796 797 797 799 800 802 804 806 808 809 811 812 813 815 817 818 820 821 822 823 824 825 827 827 829 830 831 832 832 833 834 834 834 835 835 835 835 836 837 838 839 840 840 841 842 842 842 843 844
762 764 766 768 770 772 774 776 778 780 781 782 784 785 786 787 788 789 791 793 794 795 796 797 799 801 802 804 806 807 809 810 811 812 813 815 817 819 820 821 822 824 825 826 827 829 830 831 831 832 833 833 833 833 833 834 834 835 836 837 837 838 839 839 840 841 841 842 842
760 762 764 766 768 770 772 774 776 777 779 781 782 784 785 786 787 788 789 790 792 793 794 796 797 799 800 802 804 806 807 808 808 809 810 811 813 815 817 818 820 822 823 825 826 827 829 830 831 832 832 832 832 832 832 833 833 833 834 835 836 837 837 838 839 839 840 840 841
758 760 762 764 767 768 770 772 774 776 777 779 781 782 783 785 786 786 787 788 790 791 792 794 795 797 798 800 802 803 805 806 807 807 807 808 810 812 813 816 817 820 821 823 825 826 827 828 830 830 831 831 831 831 832 832 832 832 833 834 835 835 836 837 837 838 838 839 839
756 758 760 762 764 767 768 770 772 773 775 777 778 780 781 782 784 785 786 787 788 789 791 792 793 794 796 798 800 802 803 804 805 806 806 807 808 809 811 813 815 817 819 820 822 823 824 826 827 828 829 829 829 830 830 830 831 831 832 832 833 834 835 835 836 837 837 837 838
753 756 758 760 762 764 766 768 769 771 772 774 776 777 779 780 782 783 784 785 786 787 788 790 791 792 794 796 797 799 801 802 803 804 805 805 806 807 808 810 812 813 814 816 817 819 821 823 824 825 826 827 827 828 828 829 829 830 830 831 832 832 833 834 834 835 836 836 836
751 753 756 758 760 762 764 765 767 768 770 772 774 775 777 778 779 781 782 783 784 785 787 788 789 791 792 794 796 797 799 800 801 802 803 803 804 805 807 807 808 809 810 812 815 817 820 822 823 823 824 825 826 826 827 827 828 828 829 830 831 831 832 832 833 833 834 834 835
749 751 753 756 757 759 762 763 765 767 768 770 772 773 774 776 777 778 780 781 782 783 785 787 788 789 791 792 793 795 797 797 799 800 801 802 803 804 805 806 806 807 809 812 814 817 818 820 821 822 823 823 824 825 825 826 826 827 827 828 829 830 830 831 832 832 832 833 833
747 749 751 753 755 757 759 761 763 765 766 768 770 771 772 774 775 776 777 779 780 782 783 785 787 788 789 791 792 793 795 796 797 798 799 801 801 802 802 804 805 807 809 812 813 815 817 818 819 820 821 822 823 823 824 824 825 826 826 827 827 828 829 829 830 831 831 831 832
745 747 749 751 753 755 757 759 761 763 765 766 768 769 771 772 773 774 775 777 778 780 782 784 785 787 788 790 791 792 793 795 796 797 799 800 800 801 802 802 804 807 809 811 812 814 815 816 817 818 819 820 821 822 822 823 823 824 825 825 826 827 827 828 828 829 829 830 830
744 746 748 750 752 754 756 757 759 761 763 764 766 767 769 771 772 773 774 776 777 779 781 782 784 785 787 788 789 791 792 794 796 797 798 799 800 801 802 803 805 806 808 809 811 812 813 815 816 817 818 819 819 820 821 821 822 823 823 824 825 825 826 827 827 827 828 828 828
742 744 747 748 750 752 754 756 758 759 761 762 764 766 767 769 771 772 773 775 776 778 780 781 783 784 786 787 788 790 792 793 795 796 797 798 799 801 802 803 804 806 807 808 809 810 812 813 814 815 816 817 817 818 819 820 821 821 822 822 823 824 824 825 825 826 826 827 827
741 743 745 747 748 750 752 754 756 757 759 761 762 764 766 767 769 771 772 774 775 777 778 780 782 783 785 786 788 789 791 792 793 795 796 797 799 800 801 802 804 804 805 806 807 808 809 811 812 814 814 815 816 817 817 818 819 820 820 821 822 822 823 823 824 824 824 825 825
740 742 743 745 747 748 750 752 754 755 757 759 761 762 764 766 767 769 771 772 774 776 777 779 781 783 784 786 787 789 790 791 792 794 795 797 798 799 800 802 802 803 804 805 806 807 808 809 811 812 812 813 814 815 816 817 817 818 819 819 820 821 821 822 822 822 823 823 823
739 740 741 743 745 746 748 750 752 753 756 757 759 761 763 764 766 767 769 771 773 775 777 779 780 782 783 785 787 788 790 791 792 793 795 796 797 798 799 800 801 802 802 803 804 806 807 808 809 810 811 811 812 813 814 815 815 816 817 818 818 819 820 820 821 821 821 822 822
737 738 740 741 743 744 746 748 750 752 754 756 758 760 762 763 765 767 768 770 772 774 776 778 779 781 782 784 786 787 789 790 792 793 794 795 796 797 798 799 799 800 801 801 802 804 805 806 807 808 809 809 810 811 812 813 814 814 815 816 817 817 818 818 819 819 820 820 820
736 737 739 740 742 743 745 747 749 751 753 755 757 758 760 762 764 766 767 770 772 773 775 777 778 780 782 783 785 786 787 789 790 792 793 794 795 796 797 797 797 798 799 800 801 802 803 804 805 806 807 808 809 810 810 811 812 813 814 814 815 816 816 817 817 818 818 818 818
736 737 738 740 741 742 744 746 748 751 752 754 756 757 759 761 763 765 767 769 771 772 774 776 777 779 781 782 783 785 786 787 789 790 792 793 794 795 795 796 796 797 797 799 800 801 802 803 804 805 806 807 807 808 809 810 811 811 812 813 813 814 815 816 816 817 817 817 817
736 737 739 740 742 743 745 747 748 751 752 754 756 757 759 761 763 765 766 768 770 771 772 774 776 778 779 780 782 784 785 786 787 789 790 792 792 793 794 794 795 796 796 797 798 799 800 801 802 803 804 805 806 807 807 808 809 810 811 812 812 813 814 814 815 815 815 815 815
737 738 740 741 743 744 746 748 749 751 752 754 756 757 759 761 762 764 765 767 768 770 772 773 775 776 777 779 781 782 783 785 786 787 789 790 791 791 792 793 793 794 795 796 797 798 799 800 801 802 803 804 805 806 806 807 808 809 809 810 811 812 812 813 813 813 813 813 813
738 740 742 743 745 746 748 749 751 752 753 755 756 757 758 760 761 763 764 766 767 769 771 772 773 775 777 778 779 781 782 783 785 786 787 788 789 790 791 792 792 793 794 795 796 797 797 799 800 801 802 802 803 804 805 806 807 807 808 809 810 811 811 811 812 812 812 812 812
740 742 743 745 746 747 749 751 752 753 755 756 757 757 758 759 760 762 763 765 766 768 769 771 772 774 775 777 778 779 781 782 783 784 785 786 787 788 789 790 791 792 792 793 794 795 796 797 798 799 800 802 802 803 804 805 806 807 807 808 808 809 809 810 810 810 810 810 810
742 743 745 746 747 748 750 751 752 754 755 755 756 757 757 758 760 761 762 764 765 767 768 769 771 772 774 775 777 778 779 780 782 782 784 785 786 787 787 788 789 790 791 792 793 794 795 796 797 798 800 801 802 802 803 804 805 805 806 807 807 807 808 808 808 808 808 808 808
742 744 745 747 748 749 750 751 752 753 753 754 755 756 757 758 759 760 761 763 764 766 767 769 770 772 773 774 775 777 778 779 780 781 782 783 784 785 786 787 788 789 790 790 792 793 794 795 796 797 799 800 801 802 802 803 803 804 805 805 806 806 806 807 807 807 806 806 806
742 744 746 747 748 749 750 751 751 752 752 753 754 755 756 757 758 759 761 762 764 765 767 768 769 771 772 773 774 775 777 777 779 780 781 782 783 784 785 786 787 787 788 789 791 792 793 794 795 797 797 799 799 800 801 802 802 803 803 804 804 805 805 805 805 804 804 804 803
741 743 745 746 747 748 749 749 750 751 752 752 753 755 756 757 758 759 760 762 763 764 766 767 768 770 771 772 773 774 775 776 777 778 780 781 782 783 784 785 786 787 787 789 790 791 792 793 794 795 796 797 798 799 800 800 801 802 802 802 803 803 803 803 803 802 802 802 801
740 742 743 745 746 747 747 748 749 750 751 752 753 754 755 757 758 759 760 761 762 764 765 766 767 768 770 771 772 773 774 776 777 777 779 780 781 782 783 784 785 786 787 788 789 790 791 792 793 794 795 796 797 798 799 799 800 801 801 801 802 802 802 802 801 801 800 800 799
737 739 741 743 744 746 747 747 748 749 750 752 753 754 755 756 757 758 759 760 762 763 764 765 767 767 769 770 771 772 773 775 776 777 778 779 780 781 782 783 785 785 786 787 788 789 790 791 792 793 794 795 796 797 797 798 799 799 800 800 800 800 800 800 799 799 798 798 798
736 738 740 742 743 745 746 747 748 749 750 751 752 754 755 756 757 758 759 760 761 762 763 765 766 767 768 769 770 772 773 774 775 776 777 778 780 781 782 783 784 785 785 786 787 788 789 790 791 792 793 794 795 796 797 797 798 798 799 799 799 798 798 798 797 797 797 796 796
736 738 740 741 742 744 745 746 747 748 749 751 752 753 754 755 756 757 758 760 761 762 763 764 765 766 767 768 770 771 772 773 774 776 777 778 779 781 782 782 784 784 785 785 786 787 788 789 791 792 792 793 794 795 795 796 797 797 797 797 797 797 797 796 796 795 795 794 794
Wind_Speed
27 28 28 29 28 27 27 26 26 26 26 26 26 26 26 25 24 24 24 24 23 22 22 22 22 21 21 22 23 24 23 21 20 20 19 19 18 18 18 18 17 18 18 18 18 17 16 15 14 14 13 13 13 13 12 12 12 11 11 11 11 11 11 11 12 11 11 10 10
28 28 28 29 29 28 28 26 26 26 27 27 27 27 27 26 25 24 24 24 23 23 22 21 20 20 21 22 23 24 24 22 22 21 20 19 19 18 18 18 18 19 19 19 19 18 17 16 15 14 14 14 13 13 13 13 12 12 11 11 11 11 12 12 12 12 12 11 10
28 28 28 29 29 29 28 27 26 27 27 27 27 27 28 27 26 26 25 24 24 23 22 20 19 20 21 22 23 24 24 23 23 23 22 20 19 19 19 19 19 19 19 19 19 19 18 16 15 15 14 14 14 14 13 13 13 13 12 12 12 12 12 13 13 12 12 12 11
29 28 28 29 30 30 29 27 27 28 28 27 27 27 27 27 27 27 26 26 24 23 22 20 19 19 21 22 23 24 24 24 23 23 22 21 20 20 19 20 20 20 20 20 20 19 18 17 16 15 15 15 14 14 14 13 13 13 12 12 12 12 13 13 13 13 13 12 12
29 28 28 29 30 31 30 28 27 28 28 27 27 26 26 26 26 26 27 26 25 24 23 21 20 20 22 23 23 23 23 23 23 23 22 21 21 20 20 20 21 21 20 20 20 19 18 17 16 15 15 15 14 14 14 14 13 13 13 13 13 13 13 13 13 13 13 13 13
29 28 28 29 30 30 29 27 27 28 28 27 26 26 25 25 25 26 27 27 26 25 24 23 22 22 23 23 23 23 23 23 23 23 22 21 21 21 21 21 21 21 21 20 20 19 18 17 16 15 15 14 14 14 14 14 13 13 13 13 14 14 14 13 13 13 13 13 13
29 28 27 27 29 29 28 26 26 28 29 27 27 26 26 26 26 27 28 27 25 24 24 25 25 25 24 23 23 23 23 24 23 23 22 22 22 22 22 22 22 21 21 20 20 19 18 17 16 15 15 15 14 14 14 14 14 14 14 14 14 14 14 14 13 13 13 13 14
28 27 27 27 28 29 28 26 26 27 29 29 28 28 27 27 27 28 28 27 25 24 25 26 27 26 25 24 23 24 25 25 25 24 23 23 23 23 23 23 22 21 21 20 20 19 19 18 16 15 15 15 15 14 14 14 14 14 14 14 14 14 14 14 13 14 14 14 14
28 27 27 27 28 29 28 27 27 28 29 30 30 29 28 28 28 29 28 27 26 25 26 27 28 27 25 24 24 24 25 26 26 25 24 24 24 24 23 23 23 22 21 21 20 20 19 18 16 16 15 15 14 14 14 14 15 15 15 14 14 14 14 14 14 14 14 14 15
28 28 27 27 28 29 29 27 28 28 29 30 31 30 29 29 29 29 29 28 27 26 27 28 28 27 25 24 24 24 26 26 26 25 25 25 25 24 24 24 23 23 22 21 21 20 19 18 17 16 15 15 14 13 14 15 15 15 15 15 14 15 15 15 15 14 15 15 15
29 29 28 28 29 30 29 28 27 28 29 30 31 31 30 30 30 30 29 28 27 28 28 29 28 27 25 24 24 25 26 26 26 25 25 25 25 25 25 25 24 23 22 22 21 20 20 19 17 16 14 14 13 14 14 15 16 16 15 15 15 15 15 16 16 15 15 15 16
29 29 29 28 29 29 29 28 27 27 28 29 30 30 30 30 31 31 30 28 29 29 29 28 28 26 25 24 25 25 26 27 27 26 26 25 25 25 25 25 24 23 22 22 21 21 20 19 17 15 14 14 15 15 15 16 16 16 16 16 16 16 16 16 16 16 16 16 16
30 29 29 28 29 29 29 28 26 26 27 28 29 28 28 29 31 31 30 30 30 29 28 27 26 26 25 25 25 26 27 28 28 28 27 27 26 26 26 25 25 23 23 22 22 21 20 19 16 15 15 16 16 16 16 16 16 16 17 17 17 17 17 17 17 17 17 17 17
30 30 29 28 29 29 28 28 26 26 26 27 28 27 27 28 30 31 30 30 31 29 27 26 25 25 25 26 26 27 28 28 29 29 29 29 28 28 27 26 25 24 23 23 22 21 19 17 16 16 16 17 17 17 17 17 17 17 17 18 18 18 18 18 17 17 18 18 18
30 30 29 29 29 28 28 28 26 25 26 27 28 28 28 28 29 30 29 29 30 28 26 25 25 25 26 26 27 28 28 29 29 29 29 29 29 29 28 27 26 25 24 23 22 21 19 17 17 17 18 18 17 17 17 17 18 18 18 18 18 18 18 18 18 18 18 19 19
30 30 30 29 29 28 28 28 26 25 26 27 28 28 29 29 29 29 28 28 28 27 26 26 25 26 27 27 28 28 29 29 29 29 29 29 29 29 29 28 27 26 25 24 23 22 21 20 20 20 19 18 18 18 18 18 18 18 18 18 18 18 18 18 19 19 19 19 19
30 30 30 29 29 29 28 28 26 26 26 27 28 29 29 29 29 29 29 28 27 26 26 26 26 26 27 28 29 29 29 29 29 29 29 29 29 30 30 29 29 28 27 26 25 24 23 23 23 21 20 19 18 18 18 18 18 18 18 18 18 18 18 19 19 19 19 20 20
31 30 30 30 30 29 29 28 27 26 26 27 28 29 29 29 29 29 29 29 28 27 27 27 27 27 28 30 30 31 30 30 30 30 30 30 30 31 32 32 32 31 29 27 25 25 24 24 23 21 20 19 18 18 18 18 18 19 19 19 19 19 19 19 19 19 20 20 20
31 31 30 30 30 30 29 29 28 27 27 27 28 28 29 29 29 29 29 29 30 29 28 28 27 27 29 30 31 31 31 31 31 31 31 31 32 33 33 33 32 31 28 26 25 25 25 24 23 21 20 19 19 18 18 18 18 19 19 19 19 19 19 19 19 20 20 20 20
30 30 30 30 30 30 29 29 28 27 27 27 27 28 28 29 29 29 29 30 31 31 30 28 28 28 29 30 31 32 32 31 31 31 31 31 32 32 32 31 29 27 25 24 25 25 25 24 22 21 20 19 19 19 18 18 18 19 19 19 19 20 20 20 20 20 20 20 20
30 30 30 30 30 30 29 29 28 27 27 27 27 28 28 28 28 29 29 30 31 31 30 29 28 28 29 30 31 31 31 30 30 30 30 30 30 29 29 28 26 25 24 25 26 26 25 23 22 21 20 20 20 20 19 19 19 19 19 19 20 20 20 20 20 20 20 20 20
29 29 29 29 29 29 29 29 28 28 27 27 27 28 28 28 28 28 29 29 30 31 30 29 29 29 29 30 31 31 30 30 29 29 29 29 28 26 26 25 24 24 25 26 26 25 24 22 22 21 21 21 21 21 20 19 19 19 19 19 19 20 20 20 20 21 21 21 21
27 28 29 29 29 29 29 29 29 28 27 27 27 27 27 27 27 27 28 28 29 30 30 29 29 28 29 30 31 31 30 29 29 28 28 27 25 24 24 24 25 26 26 26 25 24 23 22 22 22 22 22 21 21 20 20 19 19 19 19 19 19 19 20 20 20 21 21 22
25 27 28 28 28 29 29 29 29 28 28 27 26 27 27 27 27 27 27 27 28 29 29 29 28 28 28 29 30 30 30 29 28 27 26 25 24 24 24 25 26 27 27 26 25 24 24 23 23 23 23 22 22 21 21 20 20 19 19 19 19 19 19 19 19 20 20 21 22
25 27 27 27 28 28 28 29 29 28 28 27 26 26 26 26 26 26 27 27 28 28 29 28 28 27 28 28 28 29 28 28 26 26 25 24 24 24 25 26 26 26 26 26 26 25 24 24 24 24 23 22 22 21 21 21 20 20 19 19 19 19 18 18 19 19 20 21 21
26 26 26 26 27 27 28 28 28 28 27 26 25 25 26 26 26 26 27 27 27 28 28 27 27 27 27 27 27 27 26 26 25 24 24 24 24 25 26 26 26 26 26 26 26 25 25 25 25 24 24 23 22 22 21 21 21 21 20 20 19 19 19 19 19 19 20 20 21
25 25 25 25 25 26 26 27 27 26 26 25 25 25 25 25 25 26 26 26 26 27 27 26 26 26 26 26 26 26 25 24 24 24 24 24 25 26 27 26 25 25 26 27 26 26 26 26 26 26 25 24 22 21 21 21 20 20 20 20 19 19 19 19 20 20 21 21 22
22 22 22 21 22 23 24 24 25 25 24 24 24 24 25 25 25 25 25 26 26 26 26 25 25 25 25 25 25 26 25 24 24 24 24 25 26 27 27 26 25 26 26 27 27 27 27 27 27 27 26 25 23 21 20 19 18 18 18 18 18 18 19 19 20 20 21 22 22
19 19 18 16 16 18 20 22 23 23 23 23 23 24 24 24 24 24 25 25 25 26 26 25 24 24 24 25 25 26 25 25 24 24 25 25 26 27 27 25 25 25 26 27 28 28 28 28 29 28 28 26 24 21 19 18 16 16 15 15 16 17 17 18 19 20 21 21 22
15 15 14 14 14 15 17 19 20 21 21 21 22 23 24 24 24 24 24 25 25 26 26 25 25 25 25 25 25 25 25 25 25 25 25 26 27 27 26 25 24 24 25 27 28 29 29 29 29 29 28 27 25 23 20 18 16 15 14 14 15 15 16 17 18 19 19 20 20
13 13 13 13 14 14 15 17 18 18 19 20 21 22 23 23 23 23 24 25 25 26 26 26 25 25 25 25 25 25 25 25 25 25 26 27 27 27 26 25 24 23 24 26 28 30 30 30 30 29 28 27 26 24 22 19 17 16 15 15 15 15 16 16 17 18 18 19 20
12 12 12 12 13 13 14 15 16 17 18 19 20 21 22 22 23 24 24 25 25 25 25 25 25 25 24 24 24 24 25 25 26 26 27 27 27 27 26 25 24 24 24 26 28 30 30 30 30 29 28 27 26 25 24 22 19 17 16 16 16 16 16 17 17 18 19 20 21
11 10 11 11 12 12 13 14 14 15 17 18 19 20 21 21 22 23 24 24 25 25 25 25 25 24 24 24 24 24 25 25 26 26 27 27 27 27 26 25 24 24 25 26 28 30 30 30 30 29 28 27 26 25 24 23 21 19 18 17 17 18 18 18 19 20 20 21 22
10 9 10 10 11 12 12 13 14 15 16 17 18 19 20 20 21 22 23 23 24 24 25 24 24 24 24 24 24 24 25 25 26 26 26 27 27 26 26 25 24 24 25 26 28 29 30 30 30 29 27 26 25 24 24 23 21 20 18 18 18 19 19 20 21 21 22 22 23
10 9 9 10 10 11 13 15 16 17 17 18 18 18 19 19 20 21 21 22 22 23 23 23 23 23 23 23 24 24 24 25 25 26 26 26 26 26 26 25 23 23 24 25 27 28 29 30 29 28 27 26 25 24 24 23 21 20 19 19 19 19 20 21 21 22 22 23 23
11 11 10 10 12 14 16 17 17 17 18 18 18 18 18 18 19 19 20 21 21 21 22 22 22 22 22 23 23 24 24 24 25 25 25 25 25 25 25 25 23 23 23 24 25 27 28 28 28 27 27 26 26 25 24 22 21 20 19 19 19 19 20 21 21 22 22 23 24
12 12 12 14 15 16 17 17 18 18 18 18 18 18 18 17 18 18 19 20 20 20 21 21 22 22 22 22 23 23 24 24 24 24 25 25 25 25 25 24 23 22 22 23 24 25 26 26 26 26 27 26 26 25 23 21 19 18 18 17 18 19 19 20 20 21 22 22 23
15 15 16 16 16 17 17 18 18 18 18 18 18 18 17 17 17 17 18 19 19 20 20 21 21 21 22 22 22 22 23 23 23 23 23 23 24 24 23 23 22 21 21 21 22 23 24 24 25 26 26 25 24 23 21 18 17 16 16 16 17 17 18 19 19 20 21 22 23
17 17 17 17 17 17 17 17 17 18 18 18 17 17 17 17 17 17 18 18 19 19 19 20 20 21 21 21 21 21 22 22 22 22 22 22 22 22 22 22 21 20 20 20 20 21 22 23 24 24 24 23 22 20 18 16 14 14 14 15 16 17 18 18 19 20 21 22 23
18 18 18 18 17 17 17 17 17 17 17 17 17 17 17 17 17 17 17 18 18 19 19 19 20 20 20 20 20 20 20 20 21 21 21 21 21 21 21 21 20 18 17 17 17 18 20 21 22 22 21 20 19 18 16 14 13 13 14 15 16 17 18 19 19 20 21 22 23
18 18 18 17 17 17 17 16 16 17 17 17 17 17 16 17 16 16 17 17 18 18 18 18 19 19 19 20 19 19 19 19 19 20 20 20 20 20 20 19 18 16 15 14 15 16 18 19 19 19 18 17 17 16 15 13 13 13 14 16 16 17 18 19 20 21 21 22 23
Wind_Direction
188 187 187 187 187 186 184 184 184 184 184 184 184 185 185 185 185 185 185 185 185 186 187 188 188 188 188 188 188 188 189 190 190 190 189 189 188 188 185 182 183 184 183 182 181 180 178 177 176 174 175 176 178 182 185 188 189 191 193 196 199 202 203 203 202 203 203 204 203
189 187 186 186 187 187 186 185 185 185 185 185 185 184 183 183 183 184 185 186 186 186 186 187 187 187 188 189 189 189 189 190 189 189 188 189 189 189 186 184 185 185 183 182 181 180 179 179 177 175 175 177 179 183 187 189 190 191 194 198 202 204 205 204 205 205 206 206 207
189 186 185 186 186 186 185 186 186 186 185 185 185 184 182 182 183 184 186 187 186 184 183 183 185 187 188 189 190 190 190 190 189 188 187 188 190 189 188 187 186 186 184 183 183 182 181 180 179 177 176 177 179 183 187 191 192 192 194 199 203 205 206 205 206 207 208 209 210
189 186 185 186 186 186 185 186 186 186 185 185 184 184 183 184 184 185 185 184 183 181 180 181 184 187 188 188 189 190 191 191 190 188 187 188 190 190 189 188 188 186 185 184 184 183 183 182 181 179 177 177 179 183 187 192 194 194 196 201 205 207 207 207 207 209 211 212 212
189 186 186 186 187 187 186 186 185 185 185 184 184 184 185 185 185 184 183 181 180 180 180 182 186 188 188 187 188 189 190 191 190 189 188 188 190 190 189 189 189 187 186 186 185 185 184 183 182 181 179 179 181 184 188 192 195 196 198 203 207 208 208 208 208 210 212 214 214
188 186 186 186 186 186 185 185 185 185 185 185 184 185 186 186 184 183 181 179 180 181 182 184 187 188 187 184 186 188 191 192 192 190 189 189 190 190 189 189 189 188 187 186 186 185 185 184 183 182 181 181 183 186 190 194 195 197 200 204 207 209 209 209 209 211 212 214 215
188 186 185 185 185 185 184 184 185 186 186 185 186 186 186 186 185 184 182 181 181 182 184 185 187 187 185 184 184 187 191 193 194 192 191 190 190 190 190 190 189 188 187 186 186 186 186 185 184 183 182 183 185 188 191 195 197 198 200 203 207 209 210 210 211 212 214 215 216
188 186 185 184 184 184 185 185 185 185 186 187 187 187 187 187 187 186 185 184 183 184 185 185 186 185 184 184 185 188 191 193 193 192 191 191 190 190 190 190 189 189 188 187 187 187 187 186 186 186 185 185 187 190 193 197 200 201 201 203 207 209 211 211 213 214 216 217 217
189 187 185 184 184 185 185 186 187 186 187 188 188 188 188 188 189 188 188 186 185 185 185 185 185 185 186 187 186 188 192 193 192 191 191 190 190 190 190 190 189 189 189 189 188 188 187 188 188 188 188 187 189 193 197 200 202 202 202 204 208 211 212 213 215 217 218 219 219
190 188 185 184 184 185 186 186 189 189 188 189 189 188 188 189 190 190 188 186 185 184 185 185 184 186 188 191 190 190 191 192 192 191 190 190 190 190 190 190 189 189 189 189 189 188 188 189 190 190 190 190 193 197 201 203 203 203 204 206 209 212 215 216 217 218 220 221 221
190 188 185 184 184 185 186 186 188 189 189 190 189 188 188 189 190 190 188 185 184 185 185 185 185 186 189 193 193 192 191 192 192 191 190 190 190 190 190 190 189 189 189 189 188 188 189 190 190 191 192 196 200 202 204 203 202 202 204 207 211 214 217 218 219 220 221 222 223
190 187 184 183 183 183 183 184 187 188 189 189 189 189 189 189 189 188 186 184 184 185 186 187 186 187 190 193 194 194 193 192 192 191 190 190 191 191 191 190 189 189 189 189 188 188 189 190 191 192 197 203 206 206 204 202 202 202 206 210 213 216 218 220 220 221 222 223 224
189 185 183 183 182 182 183 184 186 188 189 190 190 190 189 188 187 186 185 185 185 185 185 187 188 190 192 194 195 195 194 193 192 190 189 189 190 191 191 190 189 189 189 189 188 188 188 190 192 198 205 209 209 207 204 202 202 204 207 211 214 217 220 222 222 222 223 224 225
188 184 182 182 181 182 183 184 186 188 189 190 191 190 189 188 187 186 185 186 186 186 185 186 189 191 193 195 195 196 195 194 193 191 189 189 189 189 189 189 188 188 188 188 188 187 188 192 198 206 211 213 211 208 206 204 204 205 208 211 215 218 221 223 224 224 224 224 225
187 183 182 181 181 182 183 185 187 188 190 191 191 191 191 191 190 188 186 187 188 187 187 187 190 193 195 195 196 196 196 196 194 192 190 189 188 187 186 186 186 187 187 188 187 189 192 198 204 210 214 215 213 210 208 207 207 208 209 212 216 219 222 224 225 226 226 226 226
186 184 183 182 182 183 185 186 188 189 190 191 191 191 191 192 193 191 190 189 190 189 189 190 191 193 195 196 196 197 197 197 195 193 191 188 187 185 184 184 184 185 186 187 189 192 198 203 207 211 214 215 214 211 210 209 209 210 211 214 217 220 223 225 227 227 228 228 228
186 185 184 184 184 185 187 188 189 190 190 190 190 191 192 193 194 194 193 192 191 191 191 192 192 192 194 195 196 197 197 197 196 193 191 188 185 183 183 183 184 185 186 188 192 197 201 204 207 210 212 213 213 212 211 210 210 211 214 216 219 222 224 226 228 229 230 231 230
187 186 186 186 186 187 189 190 191 191 191 190 190 191 192 193 194 195 195 195 194 193 193 193 193 193 194 195 196 197 197 196 194 192 190 187 185 183 183 184 185 187 188 191 194 199 202 204 207 209 211 212 212 213 213 213 213 214 215 218 220 223 225 227 229 230 232 232 233
189 188 188 188 188 189 190 191 192 192 191 191 192 192 193 193 194 195 195 195 195 194 193 193 193 194 194 195 196 196 196 195 193 191 189 187 186 185 185 186 187 188 190 193 196 200 202 203 205 207 209 210 212 213 214 215 216 216 217 219 221 223 226 228 230 231 233 234 235
191 191 191 191 191 191 192 192 192 192 192 192 192 193 193 194 194 195 195 194 195 194 193 193 194 194 195 195 196 196 195 193 190 189 188 187 186 186 186 186 187 189 192 195 198 200 201 202 203 205 206 208 211 213 215 216 218 219 220 221 223 224 226 228 230 232 233 235 237
193 193 193 193 193 193 193 193 193 193 193 193 193 193 194 194 194 195 194 194 194 193 193 193 193 194 194 194 194 194 193 191 189 189 189 188 187 187 187 187 188 191 195 197 199 199 200 201 202 203 205 207 210 212 214 216 218 220 222 223 224 226 227 229 231 232 234 236 239
195 195 196 195 195 194 194 194 194 194 194 194 194 194 194 194 194 194 193 192 192 192 192 193 193 193 193 193 192 191 190 189 189 190 190 190 189 190 190 191 193 195 197 198 198 199 200 201 202 204 205 207 210 211 213 215 217 220 223 225 226 228 229 230 232 233 235 238 240
197 197 197 197 196 196 195 194 195 195 195 195 193 193 193 194 193 192 191 190 190 191 192 192 192 192 191 191 190 189 188 189 189 190 191 191 192 193 194 196 197 197 197 197 197 198 199 201 203 205 206 208 210 211 212 214 217 220 223 226 228 230 231 233 234 236 238 240 242
202 200 199 198 197 197 196 195 195 195 195 194 192 191 191 191 190 189 188 188 189 189 190 190 190 190 190 190 189 188 188 189 190 191 193 194 195 197 198 198 198 198 197 196 196 197 199 202 204 206 207 208 210 211 212 214 216 219 222 225 228 231 233 235 237 240 242 244 245
206 203 200 199 198 197 197 196 194 193 193 192 190 190 190 189 186 185 185 186 186 187 187 188 188 189 189 188 188 189 189 190 191 192 194 196 199 200 200 199 198 197 197 196 197 198 201 204 205 206 207 208 209 211 213 214 216 218 221 225 227 231 234 238 241 244 247 249 251
205 203 201 199 198 198 197 194 192 190 189 189 189 189 188 186 184 181 181 182 183 184 184 185 187 187 188 188 188 190 191 193 194 194 196 199 201 201 200 199 198 197 197 198 198 200 203 206 207 207 207 208 209 210 213 215 217 219 222 224 228 231 235 239 243 247 250 253 255
201 200 200 200 199 198 195 191 187 186 186 187 187 187 185 182 180 179 178 179 180 181 182 183 185 186 187 188 189 191 193 195 196 197 199 201 201 201 199 198 197 197 198 199 200 202 205 207 208 208 208 207 208 210 212 215 218 220 222 225 228 232 236 240 244 248 252 255 258
197 197 198 198 199 197 191 185 182 182 184 185 185 183 180 177 177 176 176 177 178 179 181 183 185 186 187 190 192 194 195 197 197 199 201 202 201 200 199 198 199 200 201 202 202 204 206 207 209 209 208 207 208 209 212 215 217 219 222 225 228 233 237 241 246 249 253 255 257
190 191 190 189 188 185 180 176 176 179 181 181 179 177 175 174 175 175 176 177 179 180 182 185 186 188 189 192 195 197 198 198 198 199 201 202 201 201 200 199 201 203 204 205 205 206 206 208 209 210 209 208 208 210 212 214 216 219 222 225 229 234 238 242 246 250 253 255 257
177 176 173 170 169 167 167 169 172 174 175 175 174 172 172 173 175 177 178 180 182 184 185 187 189 191 193 195 197 198 198 199 199 200 200 202 202 202 202 201 202 204 206 208 208 208 208 209 210 210 210 210 211 212 213 215 217 219 223 227 231 235 238 243 247 250 254 257 259
161 159 158 158 160 161 162 165 168 170 171 172 172 172 174 176 179 181 183 185 186 187 188 190 191 193 194 195 196 196 197 198 199 200 201 202 203 204 204 204 205 206 208 210 210 209 209 210 211 211 211 212 213 215 217 218 219 221 224 228 232 236 240 244 248 252 256 260 263
154 155 157 160 163 165 166 167 169 170 172 174 176 177 180 182 185 186 188 189 189 189 190 191 192 194 194 194 195 195 196 198 200 201 202 203 204 205 206 206 207 208 209 210 211 210 210 211 211 212 213 214 216 218 220 221 222 223 226 230 234 238 242 247 251 255 259 262 265
158 162 166 170 173 175 175 175 177 178 179 181 183 185 187 189 190 190 190 191 191 190 190 191 192 192 193 193 193 195 196 198 200 201 202 204 205 206 207 207 208 209 210 210 210 210 211 211 212 212 214 215 217 220 223 224 225 226 228 232 236 240 245 249 253 257 260 263 266
162 169 175 180 183 185 187 190 193 193 192 190 190 192 193 194 193 192 191 191 190 190 190 190 191 192 192 192 193 195 197 199 201 202 203 205 206 206 207 206 207 208 209 210 210 210 211 212 213 214 215 216 219 221 224 225 226 228 231 234 239 243 247 251 255 259 262 264 267
162 169 177 185 192 201 208 211 208 203 197 194 194 196 197 197 195 193 191 189 189 188 189 190 191 192 193 194 195 196 198 201 202 203 204 205 206 206 206 206 206 207 208 209 209 210 211 212 214 215 216 217 219 222 224 226 228 231 234 238 242 246 250 254 258 261 263 266 267
164 171 185 202 217 224 223 215 206 198 193 193 194 196 197 197 196 193 190 188 187 187 188 190 192 193 195 196 197 198 200 202 203 204 204 205 205 205 205 205 206 207 209 210 210 211 212 213 215 216 217 218 220 222 224 226 229 233 237 242 246 250 254 257 260 263 266 267 268
178 193 209 219 225 222 211 201 195 192 190 191 191 192 193 194 194 193 190 187 186 187 189 191 193 195 196 198 199 200 202 203 204 204 204 203 203 203 203 204 205 208 210 212 213 213 214 214 215 215 216 217 219 221 224 227 231 235 239 244 249 253 257 260 263 265 268 269 270
199 212 217 211 206 201 196 193 190 189 188 187 188 188 189 190 191 192 190 189 188 189 191 193 195 197 198 199 199 201 202 204 204 203 202 201 201 202 202 203 206 209 213 216 217 216 215 214 213 213 214 215 217 220 222 226 230 235 241 246 251 255 259 263 266 269 271 272 273
199 197 196 193 191 190 190 189 187 186 184 183 183 184 186 188 190 191 191 190 190 191 193 195 197 198 198 198 199 200 202 203 203 202 200 199 200 201 202 203 206 212 217 218 217 214 212 210 209 209 211 213 217 219 222 224 229 235 241 247 253 258 263 267 270 273 275 276 277
183 182 181 183 185 186 187 186 184 182 180 178 179 182 184 187 189 190 190 191 192 194 195 196 197 197 197 197 198 199 200 201 201 200 198 198 200 201 202 204 207 212 217 216 211 206 204 203 204 206 209 213 218 221 222 222 228 235 243 250 256 263 268 272 275 277 279 279 279
173 174 176 179 182 184 184 182 181 179 177 177 179 182 184 185 187 189 190 191 192 194 195 195 195 195 195 196 196 197 198 199 199 198 197 198 200 202 203 204 206 210 212 208 201 197 197 199 203 206 211 216 220 222 223 224 230 239 248 255 262 268 273 277 279 280 281 281 281